BAW890 EGLL-UGTB

Flight info

Callsign BAW890
Flight time 4h 25m
Altitude 35000
Route DET1J DET L6 DVR UL9 KONAN DCT KOK DCT MATUG DCT AMASI DCT BOMBI DCT TENLO DCT DEXIT DCT PESAT DCT DEGET DCT UDROS/N0444F370 UN743 GAKSU UT310 SIN UN644 ROLIN N644 LAGAS LAGAS1B
Aircraft A320/M-SDE3FGIJ1KRWXY/SB1

Departure

Time 2026-04-26 14:08
Airport London Heathrow Airport (EGLL)

Arrival

Time 2026-04-26 18:34
Airport Tbilisi International Airport (UGTB)
Time Latitude Longitude Altitude Speed Heading
2026-04-26 13:28 51.46849 -0.48207 87 ft 0 kts 89°
2026-04-26 13:58 51.46849 -0.48208 87 ft 1 kts 89°
2026-04-26 13:58 51.46848 -0.48247 87 ft 4 kts 89°
2026-04-26 13:59 51.46848 -0.48284 87 ft 3 kts 91°
2026-04-26 13:59 51.46854 -0.48323 88 ft 4 kts 130°
2026-04-26 13:59 51.46874 -0.48349 90 ft 4 kts 159°
2026-04-26 14:00 51.46885 -0.48357 89 ft 0 kts 179°
2026-04-26 14:04 51.46876 -0.48357 90 ft 2 kts 179°
2026-04-26 14:04 51.46858 -0.48357 87 ft 3 kts 179°
2026-04-26 14:04 51.46831 -0.48357 88 ft 2 kts 180°
2026-04-26 14:05 51.46829 -0.48357 88 ft 1 kts 180°
2026-04-26 14:05 51.46820 -0.48357 89 ft 2 kts 180°
2026-04-26 14:05 51.46799 -0.48357 90 ft 6 kts 180°
2026-04-26 14:05 51.46750 -0.48388 87 ft 8 kts 233°
2026-04-26 14:06 51.46723 -0.48460 87 ft 8 kts 221°
2026-04-26 14:06 51.46667 -0.48472 87 ft 9 kts 178°
2026-04-26 14:06 51.46603 -0.48470 87 ft 10 kts 179°
2026-04-26 14:06 51.46531 -0.48470 89 ft 11 kts 180°
2026-04-26 14:07 51.46479 -0.48392 89 ft 12 kts 101°
2026-04-26 14:07 51.46479 -0.48141 88 ft 48 kts 89°
2026-04-26 14:07 51.46484 -0.47234 90 ft 110 kts 90°
2026-04-26 14:07 51.46491 -0.45760 86 ft 153 kts 89°
2026-04-26 14:08 51.46497 -0.43916 395 ft 167 kts 89°
2026-04-26 14:08 51.46478 -0.42050 1077 ft 168 kts 101°
2026-04-26 14:08 51.45922 -0.40386 1579 ft 177 kts 130°
2026-04-26 14:08 51.45163 -0.38688 1804 ft 199 kts 122°
2026-04-26 14:09 51.44410 -0.36691 2051 ft 221 kts 120°
2026-04-26 14:09 51.43670 -0.34389 2354 ft 244 kts 108°
2026-04-26 14:09 51.43261 -0.31684 2991 ft 253 kts 103°
2026-04-26 14:09 51.42863 -0.28909 3844 ft 257 kts 103°
2026-04-26 14:10 51.42462 -0.26097 4619 ft 261 kts 103°
2026-04-26 14:10 51.42065 -0.23228 5375 ft 266 kts 103°
2026-04-26 14:10 51.41666 -0.20312 6135 ft 270 kts 103°
2026-04-26 14:10 51.41264 -0.17349 6901 ft 274 kts 103°
2026-04-26 14:11 51.40436 -0.11289 8287 ft 283 kts 103°
2026-04-26 14:11 51.40015 -0.08233 8964 ft 287 kts 103°
2026-04-26 14:11 51.39579 -0.05087 9655 ft 291 kts 103°
2026-04-26 14:12 51.39136 -0.01898 10326 ft 296 kts 103°
2026-04-26 14:12 51.38673 0.01405 10598 ft 315 kts 103°
2026-04-26 14:12 51.38177 0.04947 10715 ft 337 kts 103°
2026-04-26 14:12 51.37650 0.08711 10941 ft 354 kts 103°
2026-04-26 14:13 51.36555 0.16516 12018 ft 364 kts 103°
2026-04-26 14:13 51.35999 0.20486 12592 ft 367 kts 103°
2026-04-26 14:13 51.35438 0.24489 13170 ft 370 kts 103°
2026-04-26 14:14 51.34868 0.28525 13742 ft 374 kts 103°
2026-04-26 14:14 51.34289 0.32606 14259 ft 378 kts 103°
2026-04-26 14:14 51.33703 0.36720 14781 ft 381 kts 104°
2026-04-26 14:14 51.33119 0.40806 15278 ft 384 kts 104°
2026-04-26 14:15 51.32523 0.44983 15816 ft 387 kts 104°
2026-04-26 14:15 51.31922 0.49185 16321 ft 389 kts 104°
2026-04-26 14:15 51.31311 0.53422 16839 ft 392 kts 104°
2026-04-26 14:15 51.30698 0.57676 17350 ft 395 kts 104°
2026-04-26 14:16 51.30054 0.61960 17848 ft 398 kts 105°
2026-04-26 14:16 51.29323 0.66240 18352 ft 401 kts 107°
2026-04-26 14:16 51.28531 0.70525 18807 ft 404 kts 108°
2026-04-26 14:16 51.27706 0.74831 19249 ft 407 kts 108°
2026-04-26 14:17 51.26872 0.79170 19708 ft 410 kts 108°
2026-04-26 14:17 51.26042 0.83546 20156 ft 414 kts 108°
2026-04-26 14:17 51.25215 0.87964 20623 ft 417 kts 107°
2026-04-26 14:17 51.24393 0.92411 21070 ft 420 kts 107°
2026-04-26 14:18 51.23568 0.96901 21495 ft 422 kts 107°
2026-04-26 14:18 51.22738 1.01408 21885 ft 425 kts 107°
2026-04-26 14:18 51.22181 1.04416 22149 ft 427 kts 107°
2026-04-26 14:18 51.21059 1.10452 22680 ft 430 kts 107°
2026-04-26 14:19 51.20201 1.15035 23080 ft 433 kts 107°
2026-04-26 14:19 51.19336 1.19650 23465 ft 436 kts 107°
2026-04-26 14:19 51.18462 1.24287 23841 ft 438 kts 107°
2026-04-26 14:19 51.17577 1.28953 24173 ft 441 kts 108°
2026-04-26 14:20 51.16697 1.33644 24482 ft 443 kts 105°
2026-04-26 14:20 51.16268 1.36831 24678 ft 445 kts 99°
2026-04-26 14:20 51.15969 1.41752 24974 ft 448 kts 94°
2026-04-26 14:20 51.15744 1.46711 25266 ft 450 kts 94°
2026-04-26 14:21 51.15512 1.51694 25552 ft 452 kts 94°
2026-04-26 14:21 51.15274 1.56700 25831 ft 454 kts 94°
2026-04-26 14:21 51.15030 1.61727 26125 ft 456 kts 94°
2026-04-26 14:21 51.14780 1.66775 26414 ft 459 kts 94°
2026-04-26 14:22 51.14527 1.71851 26701 ft 461 kts 94°
2026-04-26 14:22 51.14269 1.76958 26989 ft 463 kts 94°
2026-04-26 14:22 51.14007 1.82081 27274 ft 466 kts 94°
2026-04-26 14:22 51.13741 1.87226 27631 ft 466 kts 94°
2026-04-26 14:23 51.13472 1.92364 28044 ft 465 kts 94°
2026-04-26 14:23 51.13200 1.97498 28447 ft 465 kts 94°
2026-04-26 14:23 51.12929 2.02627 28839 ft 465 kts 94°
2026-04-26 14:23 51.12660 2.07752 29236 ft 465 kts 94°
2026-04-26 14:24 51.12389 2.12883 29622 ft 465 kts 94°
2026-04-26 14:24 51.12118 2.18008 30019 ft 465 kts 94°
2026-04-26 14:24 51.11847 2.23057 30405 ft 464 kts 94°
2026-04-26 14:24 51.11569 2.28178 30741 ft 464 kts 94°
2026-04-26 14:25 51.11289 2.33297 31076 ft 464 kts 94°
2026-04-26 14:25 51.11006 2.38409 31417 ft 464 kts 94°
2026-04-26 14:25 51.10717 2.43526 31761 ft 464 kts 94°
2026-04-26 14:25 51.10428 2.48630 32109 ft 464 kts 94°
2026-04-26 14:26 51.10137 2.53740 32452 ft 463 kts 94°
2026-04-26 14:26 51.09844 2.58841 32804 ft 463 kts 94°
2026-04-26 14:26 51.09526 2.63937 33149 ft 463 kts 97°
2026-04-26 14:26 51.08870 2.68949 33491 ft 463 kts 104°
2026-04-26 14:27 51.08049 2.73904 33823 ft 463 kts 104°
2026-04-26 14:27 51.07223 2.78856 34154 ft 463 kts 104°
2026-04-26 14:27 51.06397 2.83800 34450 ft 463 kts 104°
2026-04-26 14:27 51.05573 2.88740 34726 ft 462 kts 104°
2026-04-26 14:28 51.04752 2.93672 35004 ft 461 kts 104°
2026-04-26 14:28 51.03931 2.98589 35240 ft 461 kts 104°
2026-04-26 14:28 51.03106 3.03519 35316 ft 464 kts 104°
2026-04-26 14:29 51.01424 3.13542 35313 ft 475 kts 104°
2026-04-26 14:29 50.99703 3.23735 35304 ft 479 kts 104°
2026-04-26 14:30 50.97974 3.33882 35297 ft 480 kts 104°
2026-04-26 14:30 50.96225 3.44088 35296 ft 479 kts 104°
2026-04-26 14:31 50.94467 3.54283 35296 ft 479 kts 104°
2026-04-26 14:31 50.92699 3.64466 35299 ft 479 kts 104°
2026-04-26 14:32 50.90928 3.74652 35303 ft 479 kts 104°
2026-04-26 14:32 50.89156 3.84831 35310 ft 479 kts 104°
2026-04-26 14:33 50.87361 3.94997 35307 ft 479 kts 104°
2026-04-26 14:33 50.85562 4.05084 35311 ft 479 kts 104°
2026-04-26 14:34 50.83756 4.15232 35311 ft 479 kts 104°
2026-04-26 14:34 50.81945 4.25380 35318 ft 479 kts 104°
2026-04-26 14:35 50.80118 4.35509 35319 ft 479 kts 104°
2026-04-26 14:35 50.78285 4.45625 35322 ft 478 kts 104°
2026-04-26 14:36 50.76456 4.55661 35319 ft 478 kts 104°
2026-04-26 14:36 50.74610 4.65743 35314 ft 478 kts 104°
2026-04-26 14:37 50.72755 4.75807 35312 ft 477 kts 104°
2026-04-26 14:37 50.70898 4.85852 35309 ft 477 kts 104°
2026-04-26 14:38 50.69029 4.95886 35306 ft 477 kts 104°
2026-04-26 14:38 50.67148 5.05905 35309 ft 476 kts 104°
2026-04-26 14:39 50.65260 5.15908 35314 ft 476 kts 104°
2026-04-26 14:39 50.63374 5.25911 35318 ft 476 kts 104°
2026-04-26 14:40 50.61490 5.35828 35322 ft 476 kts 104°
2026-04-26 14:40 50.59579 5.45799 35323 ft 476 kts 104°
2026-04-26 14:41 50.57660 5.55754 35316 ft 475 kts 104°
2026-04-26 14:41 50.55742 5.65697 35316 ft 475 kts 104°
2026-04-26 14:42 50.53812 5.75620 35308 ft 475 kts 105°
2026-04-26 14:42 50.51872 5.85540 35298 ft 475 kts 105°
2026-04-26 14:43 50.49930 5.95440 35292 ft 474 kts 105°
2026-04-26 14:43 50.47982 6.05323 35282 ft 473 kts 105°
2026-04-26 14:44 50.46047 6.15116 35275 ft 473 kts 105°
2026-04-26 14:44 50.44085 6.24955 35272 ft 472 kts 105°
2026-04-26 14:45 50.42109 6.34769 35265 ft 472 kts 105°
2026-04-26 14:45 50.40603 6.44737 35262 ft 470 kts 100°
2026-04-26 14:46 50.39225 6.54738 35260 ft 469 kts 100°
2026-04-26 14:46 50.37834 6.64731 35269 ft 469 kts 101°
2026-04-26 14:47 50.36430 6.74710 35278 ft 469 kts 101°
2026-04-26 14:47 50.35027 6.84689 35288 ft 469 kts 101°
2026-04-26 14:48 50.33625 6.94593 35295 ft 469 kts 101°
2026-04-26 14:48 50.32204 7.04552 35292 ft 469 kts 101°
2026-04-26 14:49 50.30773 7.14498 35295 ft 468 kts 101°
2026-04-26 14:49 50.29337 7.24432 35292 ft 468 kts 101°
2026-04-26 14:50 50.27897 7.34366 35289 ft 468 kts 102°
2026-04-26 14:50 50.26444 7.44289 35287 ft 468 kts 102°
2026-04-26 14:51 50.24983 7.54196 35286 ft 468 kts 102°
2026-04-26 14:51 50.23512 7.64104 35290 ft 468 kts 102°
2026-04-26 14:52 50.22037 7.74005 35291 ft 468 kts 102°
2026-04-26 14:52 50.20562 7.83844 35292 ft 468 kts 102°
2026-04-26 14:53 50.19074 7.93744 35291 ft 468 kts 102°
2026-04-26 14:53 50.17573 8.03630 35289 ft 468 kts 102°
2026-04-26 14:54 50.16059 8.13499 35289 ft 468 kts 103°
2026-04-26 14:54 50.14546 8.23371 35285 ft 468 kts 103°
2026-04-26 14:55 50.13026 8.33229 35283 ft 468 kts 103°
2026-04-26 14:55 50.11493 8.43094 35286 ft 468 kts 103°
2026-04-26 14:56 50.09950 8.52940 35289 ft 468 kts 103°
2026-04-26 14:56 50.08403 8.62782 35290 ft 468 kts 103°
2026-04-26 14:57 50.06844 8.72627 35289 ft 468 kts 103°
2026-04-26 14:57 50.05136 8.82398 35287 ft 469 kts 109°
2026-04-26 14:58 50.02991 8.91899 35282 ft 469 kts 109°
2026-04-26 14:58 50.00830 9.01471 35278 ft 469 kts 109°
2026-04-26 14:59 49.98665 9.11048 35276 ft 470 kts 109°
2026-04-26 14:59 49.96482 9.20614 35277 ft 470 kts 109°
2026-04-26 15:00 49.94288 9.30169 35281 ft 470 kts 110°
2026-04-26 15:00 49.92087 9.39711 35282 ft 470 kts 110°
2026-04-26 15:01 49.89879 9.49251 35278 ft 470 kts 110°
2026-04-26 15:01 49.87674 9.58774 35277 ft 469 kts 110°
2026-04-26 15:02 49.85457 9.68290 35279 ft 469 kts 110°
2026-04-26 15:02 49.83233 9.77800 35286 ft 469 kts 110°
2026-04-26 15:03 49.81000 9.87297 35274 ft 469 kts 110°
2026-04-26 15:03 49.78755 9.96782 35275 ft 470 kts 111°
2026-04-26 15:04 49.76500 10.06270 35269 ft 470 kts 111°
2026-04-26 15:04 49.74250 10.15684 35267 ft 470 kts 111°
2026-04-26 15:05 49.71975 10.25170 35273 ft 471 kts 111°
2026-04-26 15:05 49.69700 10.34652 35266 ft 471 kts 111°
2026-04-26 15:06 49.67413 10.44121 35260 ft 471 kts 111°
2026-04-26 15:06 49.65113 10.53585 35260 ft 471 kts 111°
2026-04-26 15:07 49.61663 10.67752 35263 ft 471 kts 111°
2026-04-26 15:07 49.59352 10.77196 35264 ft 471 kts 111°
2026-04-26 15:08 49.57027 10.86634 35260 ft 471 kts 112°
2026-04-26 15:08 49.54690 10.96060 35259 ft 471 kts 112°
2026-04-26 15:09 49.52356 11.05413 35257 ft 471 kts 112°
2026-04-26 15:09 49.49888 11.14744 35259 ft 471 kts 114°
2026-04-26 15:10 49.47734 11.22519 35258 ft 471 kts 114°
2026-04-26 15:10 49.44745 11.33290 35262 ft 471 kts 114°
2026-04-26 15:11 49.42196 11.42572 35264 ft 471 kts 114°
2026-04-26 15:11 49.39639 11.51841 35254 ft 471 kts 114°
2026-04-26 15:12 49.37075 11.61102 35256 ft 472 kts 114°
2026-04-26 15:12 49.34522 11.70309 35250 ft 472 kts 114°
2026-04-26 15:13 49.31945 11.79578 35248 ft 473 kts 115°
2026-04-26 15:13 49.29356 11.88840 35249 ft 473 kts 115°
2026-04-26 15:14 49.26747 11.98091 35247 ft 473 kts 115°
2026-04-26 15:14 49.24127 12.07336 35244 ft 473 kts 115°
2026-04-26 15:15 49.21518 12.16580 35240 ft 474 kts 115°
2026-04-26 15:15 49.18918 12.25764 35239 ft 474 kts 115°
2026-04-26 15:16 49.16282 12.34999 35239 ft 474 kts 115°
2026-04-26 15:16 49.13634 12.44228 35235 ft 475 kts 115°
2026-04-26 15:17 49.11427 12.51897 35236 ft 475 kts 115°
2026-04-26 15:17 49.08316 12.62682 35234 ft 475 kts 115°
2026-04-26 15:18 49.05639 12.71899 35236 ft 476 kts 116°
2026-04-26 15:18 49.02952 12.81117 35234 ft 476 kts 116°
2026-04-26 15:19 49.00258 12.90331 35241 ft 476 kts 116°
2026-04-26 15:19 48.97574 12.99483 35236 ft 477 kts 116°
2026-04-26 15:20 48.94862 13.08683 35238 ft 476 kts 116°
2026-04-26 15:20 48.92146 13.17872 35232 ft 476 kts 116°
2026-04-26 15:21 48.89424 13.27048 35229 ft 476 kts 116°
2026-04-26 15:21 48.86695 13.36220 35231 ft 476 kts 116°
2026-04-26 15:22 48.83958 13.45385 35223 ft 476 kts 116°
2026-04-26 15:22 48.81677 13.52983 35219 ft 476 kts 116°
2026-04-26 15:23 48.78932 13.62118 35215 ft 476 kts 116°
2026-04-26 15:23 48.75734 13.72718 35219 ft 476 kts 116°
2026-04-26 15:24 48.73462 13.80380 35231 ft 476 kts 115°
2026-04-26 15:24 48.70783 13.89546 35225 ft 476 kts 115°
2026-04-26 15:25 48.68101 13.98708 35227 ft 476 kts 115°
2026-04-26 15:25 48.65394 14.07846 35229 ft 476 kts 116°
2026-04-26 15:26 48.62685 14.16903 35237 ft 476 kts 115°
2026-04-26 15:26 48.59956 14.26024 35240 ft 476 kts 116°
2026-04-26 15:27 48.57222 14.35130 35240 ft 476 kts 115°
2026-04-26 15:27 48.54491 14.44226 35241 ft 476 kts 115°
2026-04-26 15:28 48.51754 14.53314 35237 ft 476 kts 116°
2026-04-26 15:28 48.49002 14.62383 35238 ft 475 kts 116°
2026-04-26 15:29 48.46243 14.71431 35235 ft 475 kts 116°
2026-04-26 15:30 48.40705 14.89517 35231 ft 475 kts 116°
2026-04-26 15:30 48.37931 14.98555 35227 ft 475 kts 116°
2026-04-26 15:31 48.33752 15.12079 35229 ft 476 kts 116°
2026-04-26 15:32 48.30023 15.24052 35229 ft 475 kts 116°
2026-04-26 15:32 48.26768 15.34502 35231 ft 475 kts 116°
2026-04-26 15:33 48.23954 15.43478 35229 ft 475 kts 116°
2026-04-26 15:33 48.21134 15.52428 35226 ft 475 kts 116°
2026-04-26 15:34 48.18310 15.61384 35225 ft 475 kts 116°
2026-04-26 15:34 48.15482 15.70318 35223 ft 475 kts 116°
2026-04-26 15:35 48.12644 15.79245 35224 ft 475 kts 116°
2026-04-26 15:35 48.09803 15.88162 35223 ft 475 kts 116°
2026-04-26 15:36 48.06969 15.97007 35220 ft 475 kts 117°
2026-04-26 15:36 48.04107 16.05894 35222 ft 475 kts 117°
2026-04-26 15:37 48.01242 16.14770 35217 ft 474 kts 117°
2026-04-26 15:37 47.98373 16.23638 35214 ft 474 kts 117°
2026-04-26 15:38 47.95504 16.32506 35216 ft 474 kts 117°
2026-04-26 15:38 47.92626 16.41361 35213 ft 474 kts 117°
2026-04-26 15:39 47.89742 16.50198 35209 ft 474 kts 117°
2026-04-26 15:39 47.87334 16.57533 35208 ft 474 kts 117°
2026-04-26 15:40 47.83955 16.67773 35205 ft 474 kts 117°
2026-04-26 15:40 47.81047 16.76582 35205 ft 474 kts 117°
2026-04-26 15:41 47.78131 16.85388 35195 ft 474 kts 117°
2026-04-26 15:41 47.75204 16.94178 35199 ft 475 kts 118°
2026-04-26 15:42 47.72270 17.02964 35190 ft 475 kts 117°
2026-04-26 15:42 47.69638 17.11972 35189 ft 476 kts 112°
2026-04-26 15:43 47.67316 17.21177 35190 ft 477 kts 111°
2026-04-26 15:44 47.63761 17.34950 35190 ft 477 kts 113°
2026-04-26 15:44 47.60048 17.48561 35203 ft 477 kts 113°
2026-04-26 15:45 47.56326 17.62250 35218 ft 478 kts 113°
2026-04-26 15:46 47.52603 17.75937 35217 ft 478 kts 113°
2026-04-26 15:46 47.50526 17.83518 35218 ft 478 kts 113°
2026-04-26 15:47 47.46340 17.98736 35212 ft 479 kts 113°
2026-04-26 15:48 47.43821 18.07851 35207 ft 479 kts 113°
2026-04-26 15:48 47.41298 18.16899 35200 ft 480 kts 113°
2026-04-26 15:49 47.38749 18.26007 35195 ft 480 kts 113°
2026-04-26 15:49 47.36200 18.35118 35193 ft 481 kts 113°
2026-04-26 15:50 47.33641 18.44234 35189 ft 481 kts 113°
2026-04-26 15:50 47.31072 18.53337 35193 ft 481 kts 113°
2026-04-26 15:51 47.28503 18.62437 35188 ft 481 kts 113°
2026-04-26 15:51 47.25920 18.71533 35188 ft 481 kts 113°
2026-04-26 15:52 47.23327 18.80607 35185 ft 481 kts 113°
2026-04-26 15:52 47.20748 18.89618 35190 ft 481 kts 113°
2026-04-26 15:53 47.18148 18.98674 35183 ft 481 kts 114°
2026-04-26 15:53 47.15540 19.07717 35182 ft 481 kts 114°
2026-04-26 15:54 47.12924 19.16756 35178 ft 481 kts 114°
2026-04-26 15:54 47.10297 19.25780 35172 ft 481 kts 114°
2026-04-26 15:55 47.07664 19.34795 35168 ft 480 kts 114°
2026-04-26 15:55 47.05027 19.43798 35164 ft 480 kts 114°
2026-04-26 15:56 47.02383 19.52785 35153 ft 480 kts 114°
2026-04-26 15:56 46.99739 19.61777 35153 ft 480 kts 114°
2026-04-26 15:57 46.97082 19.70744 35151 ft 480 kts 114°
2026-04-26 15:57 46.94433 19.79636 35150 ft 480 kts 114°
2026-04-26 15:58 46.91769 19.88583 35153 ft 480 kts 114°
2026-04-26 15:58 46.89101 19.97527 35153 ft 480 kts 114°
2026-04-26 15:59 46.86422 20.06464 35157 ft 480 kts 114°
2026-04-26 15:59 46.83724 20.15390 35157 ft 480 kts 114°
2026-04-26 16:00 46.81017 20.24314 35161 ft 481 kts 114°
2026-04-26 16:00 46.78312 20.33232 35156 ft 481 kts 114°
2026-04-26 16:01 46.75598 20.42145 35149 ft 481 kts 114°
2026-04-26 16:01 46.72903 20.50988 35140 ft 481 kts 114°
2026-04-26 16:02 46.70185 20.59895 35141 ft 481 kts 115°
2026-04-26 16:02 46.67442 20.68791 35134 ft 482 kts 115°
2026-04-26 16:03 46.64678 20.77685 35131 ft 482 kts 115°
2026-04-26 16:03 46.61919 20.86575 35138 ft 482 kts 115°
2026-04-26 16:04 46.59166 20.95457 35129 ft 482 kts 115°
2026-04-26 16:04 46.56402 21.04325 35124 ft 481 kts 115°
2026-04-26 16:05 46.53630 21.13166 35125 ft 481 kts 115°
2026-04-26 16:05 46.50850 21.22002 35122 ft 481 kts 115°
2026-04-26 16:06 46.48025 21.30814 35122 ft 482 kts 116°
2026-04-26 16:06 46.45077 21.39545 35125 ft 482 kts 117°
2026-04-26 16:07 46.42076 21.48244 35127 ft 483 kts 117°
2026-04-26 16:07 46.39091 21.56894 35126 ft 483 kts 117°
2026-04-26 16:08 46.36102 21.65612 35124 ft 484 kts 117°
2026-04-26 16:08 46.33117 21.74347 35124 ft 484 kts 117°
2026-04-26 16:09 46.30123 21.83076 35119 ft 484 kts 117°
2026-04-26 16:09 46.27108 21.91787 35116 ft 485 kts 117°
2026-04-26 16:10 46.24081 22.00493 35112 ft 485 kts 117°
2026-04-26 16:10 46.21048 22.09202 35112 ft 485 kts 117°
2026-04-26 16:11 46.18005 22.17896 35106 ft 485 kts 117°
2026-04-26 16:11 46.14954 22.26594 35106 ft 486 kts 117°
2026-04-26 16:12 46.11899 22.35289 35106 ft 486 kts 117°
2026-04-26 16:12 46.07325 22.48262 35110 ft 486 kts 117°
2026-04-26 16:13 46.04255 22.56927 35114 ft 486 kts 117°
2026-04-26 16:13 46.01182 22.65586 35110 ft 486 kts 117°
2026-04-26 16:14 45.98095 22.74240 35109 ft 486 kts 117°
2026-04-26 16:15 45.93454 22.87195 35102 ft 486 kts 117°
2026-04-26 16:15 45.90345 22.95821 35095 ft 486 kts 117°
2026-04-26 16:16 45.85673 23.08741 35089 ft 486 kts 117°
2026-04-26 16:16 45.82555 23.17346 35088 ft 486 kts 118°
2026-04-26 16:17 45.79433 23.25939 35088 ft 486 kts 118°
2026-04-26 16:17 45.76304 23.34516 35090 ft 486 kts 118°
2026-04-26 16:18 45.71612 23.47358 35084 ft 485 kts 118°
2026-04-26 16:19 45.66917 23.60106 35091 ft 484 kts 118°
2026-04-26 16:20 45.62198 23.72847 35087 ft 483 kts 118°
2026-04-26 16:20 45.57474 23.85570 35077 ft 483 kts 118°
2026-04-26 16:21 45.54320 23.94041 35071 ft 484 kts 118°
2026-04-26 16:21 45.51151 24.02507 35068 ft 484 kts 118°
2026-04-26 16:22 45.48516 24.09537 35060 ft 484 kts 118°
2026-04-26 16:22 45.45334 24.17998 35053 ft 485 kts 118°
2026-04-26 16:23 45.42142 24.26460 35043 ft 486 kts 118°
2026-04-26 16:23 45.38935 24.34924 35034 ft 486 kts 117°
2026-04-26 16:24 45.35719 24.43389 35021 ft 486 kts 117°
2026-04-26 16:24 45.32503 24.51844 35013 ft 487 kts 117°
2026-04-26 16:25 45.29275 24.60304 35005 ft 487 kts 117°
2026-04-26 16:25 45.26037 24.68753 34989 ft 487 kts 117°
2026-04-26 16:26 45.22812 24.77135 34987 ft 487 kts 117°
2026-04-26 16:26 45.19558 24.85575 34983 ft 487 kts 117°
2026-04-26 16:27 45.16305 24.93993 34981 ft 487 kts 118°
2026-04-26 16:27 45.13044 25.02394 34977 ft 486 kts 118°
2026-04-26 16:28 45.09780 25.10777 34980 ft 486 kts 118°
2026-04-26 16:28 45.06508 25.19147 34975 ft 486 kts 118°
2026-04-26 16:29 45.03240 25.27499 34970 ft 486 kts 118°
2026-04-26 16:29 44.99966 25.35854 34959 ft 486 kts 118°
2026-04-26 16:30 44.96681 25.44194 34953 ft 486 kts 118°
2026-04-26 16:30 44.93387 25.52517 34947 ft 486 kts 118°
2026-04-26 16:31 44.90093 25.60840 34939 ft 486 kts 118°
2026-04-26 16:31 44.86796 25.69154 34935 ft 486 kts 118°
2026-04-26 16:32 44.84044 25.76048 34926 ft 485 kts 118°
2026-04-26 16:32 44.80192 25.85672 34932 ft 485 kts 118°
2026-04-26 16:33 44.76877 25.93956 34940 ft 485 kts 118°
2026-04-26 16:33 44.73558 26.02215 34950 ft 485 kts 118°
2026-04-26 16:34 44.70231 26.10462 34954 ft 485 kts 118°
2026-04-26 16:34 44.66903 26.18691 34951 ft 484 kts 118°
2026-04-26 16:35 44.63572 26.26910 34950 ft 484 kts 118°
2026-04-26 16:35 44.60244 26.35104 34949 ft 483 kts 118°
2026-04-26 16:36 44.56903 26.43290 34934 ft 483 kts 118°
2026-04-26 16:36 44.53556 26.51455 34932 ft 483 kts 118°
2026-04-26 16:37 44.50212 26.59601 34933 ft 482 kts 118°
2026-04-26 16:37 44.46892 26.67682 34937 ft 481 kts 118°
2026-04-26 16:38 44.43550 26.75794 34938 ft 481 kts 118°
2026-04-26 16:38 44.40201 26.83880 34939 ft 480 kts 118°
2026-04-26 16:39 44.36859 26.91943 34944 ft 479 kts 118°
2026-04-26 16:39 44.33509 26.99986 34941 ft 478 kts 119°
2026-04-26 16:40 44.30160 27.07997 34942 ft 478 kts 118°
2026-04-26 16:40 44.26812 27.16002 34940 ft 477 kts 119°
2026-04-26 16:41 44.23458 27.23979 34941 ft 476 kts 119°
2026-04-26 16:41 44.20107 27.31938 34935 ft 476 kts 119°
2026-04-26 16:42 44.16783 27.39831 34940 ft 475 kts 119°
2026-04-26 16:42 44.13426 27.47753 34937 ft 475 kts 119°
2026-04-26 16:43 44.10066 27.55654 34932 ft 474 kts 119°
2026-04-26 16:43 44.06706 27.63547 34929 ft 474 kts 119°
2026-04-26 16:44 44.03348 27.71435 34928 ft 474 kts 119°
2026-04-26 16:44 43.99988 27.79314 34929 ft 474 kts 120°
2026-04-26 16:45 43.96613 27.87167 34927 ft 473 kts 120°
2026-04-26 16:45 43.93230 27.95004 34925 ft 473 kts 120°
2026-04-26 16:46 43.89861 28.02827 34924 ft 473 kts 120°
2026-04-26 16:46 43.86487 28.10646 34927 ft 472 kts 120°
2026-04-26 16:47 43.83103 28.18432 34925 ft 471 kts 120°
2026-04-26 16:47 43.79716 28.26207 34924 ft 471 kts 120°
2026-04-26 16:48 43.76356 28.33903 34924 ft 470 kts 120°
2026-04-26 16:48 43.72975 28.41646 34922 ft 470 kts 120°
2026-04-26 16:49 43.69592 28.49375 34925 ft 469 kts 120°
2026-04-26 16:49 43.66207 28.57070 34928 ft 469 kts 120°
2026-04-26 16:50 43.62814 28.64757 34932 ft 468 kts 121°
2026-04-26 16:50 43.59423 28.72426 34931 ft 468 kts 121°
2026-04-26 16:51 43.56037 28.80078 34936 ft 468 kts 121°
2026-04-26 16:51 43.52644 28.87717 34936 ft 467 kts 121°
2026-04-26 16:52 43.49820 28.94065 34936 ft 467 kts 121°
2026-04-26 16:52 43.45841 29.02965 34933 ft 467 kts 121°
2026-04-26 16:53 43.42428 29.10567 34934 ft 467 kts 121°
2026-04-26 16:53 43.39046 29.18108 34933 ft 466 kts 121°
2026-04-26 16:54 43.35645 29.25697 34932 ft 466 kts 121°
2026-04-26 16:54 43.32235 29.33267 34932 ft 466 kts 121°
2026-04-26 16:55 43.28806 29.40822 34936 ft 466 kts 121°
2026-04-26 16:55 43.25372 29.48362 34935 ft 466 kts 121°
2026-04-26 16:56 43.20234 29.59667 34935 ft 466 kts 121°
2026-04-26 16:57 43.16807 29.67191 34938 ft 465 kts 121°
2026-04-26 16:57 43.11660 29.78465 34939 ft 465 kts 121°
2026-04-26 16:58 43.08801 29.84687 34941 ft 465 kts 121°
2026-04-26 16:59 43.03059 29.97111 34943 ft 465 kts 121°
2026-04-26 17:00 42.96157 30.12028 34949 ft 464 kts 121°
2026-04-26 17:00 42.90962 30.23178 34947 ft 464 kts 121°
2026-04-26 17:01 42.87500 30.30601 34948 ft 464 kts 121°
2026-04-26 17:01 42.84036 30.38008 34953 ft 463 kts 121°
2026-04-26 17:02 42.80571 30.45413 34955 ft 463 kts 121°
2026-04-26 17:02 42.77101 30.52803 34954 ft 463 kts 122°
2026-04-26 17:03 42.73949 30.60352 34975 ft 462 kts 110°
2026-04-26 17:03 42.72938 30.64543 35331 ft 459 kts 103°
2026-04-26 17:03 42.72136 30.68680 35665 ft 458 kts 103°
2026-04-26 17:04 42.71317 30.72866 35965 ft 458 kts 104°
2026-04-26 17:04 42.70495 30.77053 36257 ft 458 kts 104°
2026-04-26 17:04 42.69673 30.81233 36540 ft 458 kts 104°
2026-04-26 17:04 42.68850 30.85410 36816 ft 458 kts 104°
2026-04-26 17:05 42.68028 30.89589 36940 ft 458 kts 104°
2026-04-26 17:05 42.67202 30.93774 36948 ft 458 kts 104°
2026-04-26 17:05 42.65553 31.02116 36946 ft 457 kts 104°
2026-04-26 17:06 42.63892 31.10458 36947 ft 457 kts 104°
2026-04-26 17:06 42.62227 31.18799 36949 ft 458 kts 104°
2026-04-26 17:07 42.60568 31.27085 36949 ft 458 kts 104°
2026-04-26 17:07 42.58890 31.35427 36955 ft 458 kts 105°
2026-04-26 17:08 42.57209 31.43767 36960 ft 459 kts 105°
2026-04-26 17:08 42.55518 31.52113 36959 ft 459 kts 105°
2026-04-26 17:09 42.54101 31.59049 36968 ft 459 kts 105°
2026-04-26 17:09 42.52104 31.68804 36967 ft 460 kts 105°
2026-04-26 17:10 42.50397 31.77155 36968 ft 460 kts 105°
2026-04-26 17:10 42.48679 31.85505 36970 ft 460 kts 105°
2026-04-26 17:11 42.46949 31.93857 36973 ft 460 kts 105°
2026-04-26 17:11 42.45229 32.02150 36970 ft 461 kts 105°
2026-04-26 17:12 42.42610 32.14670 36976 ft 461 kts 106°
2026-04-26 17:13 42.39974 32.27191 36983 ft 462 kts 106°
2026-04-26 17:14 42.37325 32.39727 36986 ft 462 kts 106°
2026-04-26 17:14 42.34650 32.52263 36989 ft 463 kts 106°
2026-04-26 17:15 42.32603 32.64991 36989 ft 463 kts 98°
2026-04-26 17:16 42.31639 32.73597 36984 ft 463 kts 98°
2026-04-26 17:16 42.30674 32.82149 36989 ft 464 kts 98°
2026-04-26 17:17 42.29691 32.90756 36986 ft 464 kts 99°
2026-04-26 17:17 42.28690 32.99366 36988 ft 464 kts 99°
2026-04-26 17:18 42.27694 33.07976 36970 ft 465 kts 98°
2026-04-26 17:18 42.26693 33.16620 36957 ft 467 kts 98°
2026-04-26 17:19 42.25163 33.29632 36959 ft 469 kts 98°
2026-04-26 17:19 42.24126 33.38336 36971 ft 470 kts 99°
2026-04-26 17:20 42.23437 33.44103 36974 ft 470 kts 99°
2026-04-26 17:20 42.22042 33.55703 36983 ft 471 kts 99°
2026-04-26 17:21 42.20979 33.64428 36988 ft 471 kts 99°
2026-04-26 17:21 42.20091 33.71731 36989 ft 471 kts 99°
2026-04-26 17:22 42.19031 33.80440 36985 ft 471 kts 99°
2026-04-26 17:22 42.17967 33.89083 36988 ft 471 kts 99°
2026-04-26 17:23 42.16889 33.97783 36991 ft 471 kts 99°
2026-04-26 17:23 42.15802 34.06481 36994 ft 470 kts 99°
2026-04-26 17:24 42.14711 34.15170 36997 ft 470 kts 99°
2026-04-26 17:24 42.13608 34.23859 36989 ft 470 kts 99°
2026-04-26 17:25 42.12502 34.32533 36992 ft 470 kts 99°
2026-04-26 17:25 42.11393 34.41203 36993 ft 469 kts 99°
2026-04-26 17:26 42.10257 34.49856 36994 ft 469 kts 100°
2026-04-26 17:26 42.09061 34.58437 36994 ft 470 kts 101°
2026-04-26 17:27 42.07844 34.67077 36993 ft 470 kts 101°
2026-04-26 17:27 42.06637 34.75722 36996 ft 470 kts 101°
2026-04-26 17:28 42.05427 34.84362 37002 ft 469 kts 101°
2026-04-26 17:28 42.04237 34.92990 37002 ft 470 kts 100°
2026-04-26 17:29 42.03278 35.00181 37002 ft 469 kts 100°
2026-04-26 17:29 42.02159 35.10321 37001 ft 469 kts 93°
2026-04-26 17:30 42.01716 35.19072 36999 ft 469 kts 94°
2026-04-26 17:30 42.01235 35.27818 36999 ft 469 kts 94°
2026-04-26 17:31 42.00755 35.36503 37001 ft 469 kts 94°
2026-04-26 17:31 42.00278 35.45246 36999 ft 468 kts 94°
2026-04-26 17:32 41.99798 35.53970 36994 ft 468 kts 94°
2026-04-26 17:32 41.99312 35.62694 36996 ft 468 kts 94°
2026-04-26 17:33 41.98809 35.71413 36996 ft 468 kts 94°
2026-04-26 17:34 41.98050 35.84483 36997 ft 467 kts 94°
2026-04-26 17:34 41.97541 35.93186 36997 ft 467 kts 94°
2026-04-26 17:35 41.97018 36.01887 36999 ft 467 kts 95°
2026-04-26 17:35 41.96499 36.10582 36995 ft 467 kts 95°
2026-04-26 17:36 41.95973 36.19206 36998 ft 466 kts 95°
2026-04-26 17:36 41.95428 36.27883 36999 ft 466 kts 95°
2026-04-26 17:37 41.94884 36.36547 36996 ft 465 kts 95°
2026-04-26 17:37 41.94330 36.45208 36993 ft 465 kts 95°
2026-04-26 17:38 41.93490 36.58184 36993 ft 465 kts 95°
2026-04-26 17:38 41.92924 36.66833 36990 ft 465 kts 95°
2026-04-26 17:39 41.92352 36.75476 36993 ft 465 kts 95°
2026-04-26 17:39 41.91774 36.84122 36986 ft 465 kts 95°
2026-04-26 17:40 41.91289 36.91306 36989 ft 465 kts 96°
2026-04-26 17:40 41.90596 37.01353 36986 ft 465 kts 96°
2026-04-26 17:41 41.90124 37.10012 36987 ft 465 kts 92°
2026-04-26 17:41 41.90050 37.18700 36989 ft 466 kts 90°
2026-04-26 17:42 41.90054 37.27389 36987 ft 466 kts 91°
2026-04-26 17:42 41.89955 37.36090 36990 ft 466 kts 91°
2026-04-26 17:43 41.89790 37.44785 36988 ft 466 kts 92°
2026-04-26 17:43 41.89620 37.53488 36988 ft 467 kts 92°
2026-04-26 17:44 41.89462 37.62197 36988 ft 467 kts 92°
2026-04-26 17:44 41.89315 37.70907 36990 ft 467 kts 92°
2026-04-26 17:45 41.89153 37.79623 36991 ft 467 kts 92°
2026-04-26 17:45 41.88980 37.88341 36988 ft 467 kts 92°
2026-04-26 17:46 41.88795 37.96992 36988 ft 467 kts 92°
2026-04-26 17:46 41.88594 38.05708 36982 ft 467 kts 92°
2026-04-26 17:47 41.88427 38.12951 36980 ft 467 kts 92°
2026-04-26 17:47 41.88195 38.23136 36976 ft 467 kts 92°
2026-04-26 17:48 41.87990 38.31859 36976 ft 468 kts 92°
2026-04-26 17:48 41.87773 38.40585 36974 ft 468 kts 93°
2026-04-26 17:49 41.87549 38.49308 36972 ft 468 kts 93°
2026-04-26 17:49 41.87325 38.58039 36969 ft 468 kts 93°
2026-04-26 17:50 41.87089 38.66707 36970 ft 468 kts 93°
2026-04-26 17:50 41.86846 38.75430 36968 ft 468 kts 93°
2026-04-26 17:51 41.86602 38.84159 36968 ft 468 kts 93°
2026-04-26 17:51 41.86340 38.92884 36962 ft 468 kts 93°
2026-04-26 17:52 41.86077 39.01616 36969 ft 469 kts 94°
2026-04-26 17:52 41.85803 39.10353 36968 ft 469 kts 94°
2026-04-26 17:53 41.85526 39.19098 36967 ft 469 kts 94°
2026-04-26 17:54 41.85099 39.32221 36971 ft 470 kts 94°
2026-04-26 17:54 41.84807 39.40916 36971 ft 470 kts 94°
2026-04-26 17:55 41.84502 39.49671 36974 ft 470 kts 94°
2026-04-26 17:55 41.84200 39.58421 36969 ft 470 kts 94°
2026-04-26 17:56 41.83890 39.67176 36966 ft 470 kts 94°
2026-04-26 17:57 41.83244 39.84691 36961 ft 470 kts 94°
2026-04-26 17:57 41.82915 39.93453 36961 ft 471 kts 94°
2026-04-26 17:58 41.82218 40.10980 36966 ft 471 kts 95°
2026-04-26 17:59 41.81693 40.24125 36964 ft 471 kts 94°
2026-04-26 17:59 41.81339 40.32891 36965 ft 471 kts 95°
2026-04-26 18:00 41.80967 40.41657 36959 ft 471 kts 95°
2026-04-26 18:00 41.80589 40.50432 36961 ft 471 kts 95°
2026-04-26 18:01 41.80210 40.59141 36968 ft 472 kts 95°
2026-04-26 18:01 41.79813 40.67921 36965 ft 472 kts 95°
2026-04-26 18:02 41.79537 40.73797 36980 ft 472 kts 95°
2026-04-26 18:02 41.78959 40.85481 36971 ft 472 kts 96°
2026-04-26 18:03 41.78509 40.94246 36958 ft 472 kts 96°
2026-04-26 18:03 41.78051 41.03010 36953 ft 471 kts 96°
2026-04-26 18:04 41.77598 41.11766 36943 ft 471 kts 96°
2026-04-26 18:05 41.76933 41.24895 36956 ft 471 kts 96°
2026-04-26 18:05 41.76468 41.33642 36950 ft 470 kts 96°
2026-04-26 18:06 41.75998 41.42320 36951 ft 470 kts 96°
2026-04-26 18:06 41.75521 41.51056 36956 ft 471 kts 96°
2026-04-26 18:07 41.75032 41.59792 36957 ft 471 kts 96°
2026-04-26 18:07 41.74532 41.68536 36956 ft 471 kts 97°
2026-04-26 18:08 41.74025 41.77275 36964 ft 471 kts 96°
2026-04-26 18:08 41.73526 41.86014 36959 ft 471 kts 97°
2026-04-26 18:09 41.73021 41.94754 36965 ft 471 kts 96°
2026-04-26 18:09 41.72502 42.03481 36976 ft 471 kts 97°
2026-04-26 18:10 41.71972 42.12216 36986 ft 471 kts 97°
2026-04-26 18:10 41.71431 42.20946 36997 ft 471 kts 97°
2026-04-26 18:11 41.70885 42.29674 36998 ft 471 kts 97°
2026-04-26 18:11 41.70342 42.38338 37001 ft 470 kts 97°
2026-04-26 18:12 41.69794 42.47060 37006 ft 470 kts 97°
2026-04-26 18:12 41.69239 42.55777 37005 ft 470 kts 97°
2026-04-26 18:13 41.68673 42.64487 37010 ft 470 kts 97°
2026-04-26 18:13 41.68090 42.73185 37007 ft 470 kts 97°
2026-04-26 18:14 41.67507 42.81920 35877 ft 474 kts 97°
2026-04-26 18:14 41.67212 42.86328 35152 ft 478 kts 97°
2026-04-26 18:14 41.66911 42.90774 34389 ft 482 kts 98°
2026-04-26 18:14 41.66606 42.95265 33502 ft 488 kts 98°
2026-04-26 18:15 41.66299 42.99798 32676 ft 490 kts 98°
2026-04-26 18:15 41.65989 43.04337 31914 ft 491 kts 98°
2026-04-26 18:15 41.65682 43.08846 31433 ft 485 kts 98°
2026-04-26 18:15 41.65375 43.13319 30870 ft 481 kts 98°
2026-04-26 18:16 41.65068 43.17756 30323 ft 477 kts 98°
2026-04-26 18:16 41.64445 43.26507 29176 ft 468 kts 99°
2026-04-26 18:16 41.64136 43.30811 28635 ft 462 kts 99°
2026-04-26 18:17 41.63830 43.35062 28094 ft 457 kts 98°
2026-04-26 18:17 41.63525 43.39268 27558 ft 452 kts 98°
2026-04-26 18:17 41.63226 43.43373 27032 ft 448 kts 98°
2026-04-26 18:17 41.62924 43.47491 26512 ft 443 kts 98°
2026-04-26 18:18 41.62627 43.51570 25997 ft 439 kts 98°
2026-04-26 18:18 41.62333 43.55611 25482 ft 435 kts 98°
2026-04-26 18:18 41.62039 43.59614 24990 ft 431 kts 98°
2026-04-26 18:18 41.61746 43.63586 24496 ft 428 kts 98°
2026-04-26 18:19 41.61454 43.67522 24033 ft 424 kts 98°
2026-04-26 18:19 41.61163 43.71425 23559 ft 421 kts 98°
2026-04-26 18:19 41.60967 43.74046 23205 ft 418 kts 98°
2026-04-26 18:19 41.60680 43.77888 22758 ft 413 kts 98°
2026-04-26 18:20 41.60396 43.81685 22303 ft 409 kts 98°
2026-04-26 18:20 41.60116 43.85392 21853 ft 404 kts 98°
2026-04-26 18:20 41.59833 43.89108 21406 ft 400 kts 98°
2026-04-26 18:20 41.59641 43.91593 21092 ft 398 kts 98°
2026-04-26 18:21 41.59268 43.96435 20479 ft 393 kts 98°
2026-04-26 18:21 41.58990 44.00054 19995 ft 391 kts 98°
2026-04-26 18:21 41.58713 44.03655 19525 ft 388 kts 98°
2026-04-26 18:21 41.58435 44.07229 19030 ft 386 kts 98°
2026-04-26 18:22 41.58159 44.10789 18538 ft 385 kts 97°
2026-04-26 18:22 41.57881 44.14339 17998 ft 383 kts 97°
2026-04-26 18:22 41.57867 44.17883 17494 ft 382 kts 84°
2026-04-26 18:22 41.58506 44.21311 16979 ft 380 kts 68°
2026-04-26 18:23 41.59758 44.24403 16490 ft 378 kts 53°
2026-04-26 18:23 41.61522 44.26969 15984 ft 374 kts 38°
2026-04-26 18:23 41.63635 44.28973 15480 ft 371 kts 32°
2026-04-26 18:23 41.65775 44.30890 14973 ft 369 kts 32°
2026-04-26 18:24 41.67899 44.32799 14475 ft 367 kts 32°
2026-04-26 18:24 41.70010 44.34708 13972 ft 365 kts 32°
2026-04-26 18:24 41.72110 44.36613 13429 ft 364 kts 33°
2026-04-26 18:24 41.74198 44.38511 12924 ft 361 kts 33°
2026-04-26 18:25 41.76271 44.40399 12333 ft 360 kts 33°
2026-04-26 18:25 41.78335 44.42280 11845 ft 357 kts 33°
2026-04-26 18:25 41.80349 44.44111 11358 ft 353 kts 33°
2026-04-26 18:25 41.82379 44.45956 10880 ft 351 kts 33°
2026-04-26 18:26 41.84274 44.47999 10410 ft 349 kts 45°
2026-04-26 18:26 41.85889 44.50283 10254 ft 325 kts 46°
2026-04-26 18:26 41.87394 44.52399 10043 ft 306 kts 45°
2026-04-26 18:26 41.88848 44.54431 9606 ft 299 kts 45°
2026-04-26 18:27 41.90257 44.56449 9416 ft 294 kts 51°
2026-04-26 18:27 41.91192 44.58806 9228 ft 281 kts 73°
2026-04-26 18:27 41.91426 44.61353 8841 ft 273 kts 95°
2026-04-26 18:27 41.90969 44.63834 8340 ft 274 kts 117°
2026-04-26 18:28 41.89901 44.65889 7855 ft 268 kts 137°
2026-04-26 18:28 41.88574 44.67559 7618 ft 254 kts 137°
2026-04-26 18:28 41.87321 44.69177 7287 ft 247 kts 137°
2026-04-26 18:28 41.86078 44.70771 6958 ft 248 kts 137°
2026-04-26 18:29 41.84824 44.72370 6626 ft 248 kts 137°
2026-04-26 18:29 41.83593 44.73939 6298 ft 240 kts 137°
2026-04-26 18:29 41.82415 44.75438 6123 ft 230 kts 137°
2026-04-26 18:29 41.81260 44.76908 5841 ft 229 kts 137°
2026-04-26 18:30 41.80101 44.78383 5481 ft 231 kts 137°
2026-04-26 18:30 41.78959 44.79835 5135 ft 227 kts 137°
2026-04-26 18:30 41.77831 44.81269 4808 ft 220 kts 136°
2026-04-26 18:30 41.76734 44.82662 4462 ft 214 kts 136°
2026-04-26 18:31 41.75662 44.84022 4130 ft 211 kts 136°
2026-04-26 18:31 41.74613 44.85354 3835 ft 205 kts 136°
2026-04-26 18:31 41.73607 44.86630 3499 ft 193 kts 136°
2026-04-26 18:31 41.72674 44.87812 3215 ft 173 kts 136°
2026-04-26 18:32 41.71850 44.88856 2919 ft 155 kts 136°
2026-04-26 18:32 41.71091 44.89818 2674 ft 147 kts 135°
2026-04-26 18:32 41.70354 44.90747 2427 ft 144 kts 135°
2026-04-26 18:32 41.69631 44.91664 2207 ft 143 kts 135°
2026-04-26 18:33 41.68913 44.92577 2002 ft 142 kts 135°
2026-04-26 18:33 41.68196 44.93488 1751 ft 142 kts 135°
2026-04-26 18:33 41.67482 44.94392 1576 ft 138 kts 136°
2026-04-26 18:33 41.66957 44.95061 1559 ft 61 kts 136°
2026-04-26 18:34 41.66723 44.95354 1550 ft 45 kts 137°
2026-04-26 18:34 41.66489 44.95650 1538 ft 47 kts 136°
2026-04-26 18:34 41.66247 44.95956 1532 ft 49 kts 136°
2026-04-26 18:34 41.65995 44.96272 1520 ft 39 kts 136°
2026-04-26 18:35 41.65858 44.96477 1520 ft 25 kts 108°
2026-04-26 18:35 41.65894 44.96591 1528 ft 9 kts 20°
2026-04-26 18:35 41.65953 44.96571 1537 ft 9 kts 324°
2026-04-26 18:35 41.66022 44.96493 1540 ft 19 kts 317°
2026-04-26 18:36 41.66122 44.96370 1544 ft 20 kts 319°
2026-04-26 18:36 41.66246 44.96296 1553 ft 19 kts 354°
2026-04-26 18:36 41.66376 44.96327 1555 ft 20 kts 14°
2026-04-26 18:36 41.66526 44.96376 1552 ft 24 kts 13°
2026-04-26 18:37 41.66674 44.96422 1551 ft 16 kts 11°
2026-04-26 18:37 41.66754 44.96376 1551 ft 8 kts 343°
2026-04-26 18:37 41.66806 44.96416 1551 ft 3 kts 46°
2026-04-26 18:37 41.66817 44.96431 1551 ft 1 kts 44°